Regional Weather Roundup
Issued by NWS

Home | Current Version | Previous Version | Text Only | Print | Product List | Glossary Off
Versions: 1 2 3 4 5 6 7 8 9 10 11 12 13 14 15 16 17 18 19 20 21 22 23 24 25 26 27 28 29 30 31 32 33 34 35 36 37 38 39 40 41 42 43 44 45 46 47 48 49 50

000
ASUS43 KMPX 171810
RWRMN
WEATHER ROUNDUP FOR MINNESOTA
NATIONAL WEATHER SERVICE TWIN CITIES/CHANHASSEN MN
100 PM CDT THU AUG 17 2017


NOTE: "FAIR" INDICATES FEW OR NO CLOUDS BELOW 12,000 FEET WITH NO
SIGNIFICANT WEATHER AND/OR OBSTRUCTIONS TO VISIBILITY. N/A MEANS
CURRENT SKY AND/OR WEATHER CONDITIONS ARE NOT AVAILABLE.

MNZ060>063-068>070-171900-
   Twin Cities Metro

CITY           SKY/WX    TMP DP  RH WIND       PRES   REMARKS
TWIN CITIES    CLOUDY    66  60  81 NW16G25   29.70R
6HR MIN TEMP:  65; 6HR MAX TEMP:  68; 6HR PCP: TRACE;

ST PAUL        CLOUDY    66  62  87 NW15G26   29.69R
CRYSTAL        CLOUDY    67  58  72 NW16G23   29.69R
BLAINE         CLOUDY    68  64  88 NW13      29.69R
LAKEVILLE      CLOUDY    64  64 100 NW18G24   29.70R
EDEN PRAIRIE   CLOUDY    69  61  75 NW18G29   29.70R
6HR MIN TEMP:  66; 6HR MAX TEMP:  70; 6HR PCP:  0.01;

SOUTH ST PAUL  CLOUDY    64  64  97 NW12      29.68R
LAKE ELMO      CLOUDY    63  61  94 NW13      29.69R FOG
$$
MNZ001>005-007-008-013>017-022>024-027-028-171900-
   Northwest Minnesota

CITY           SKY/WX    TMP DP  RH WIND       PRES   REMARKS
BEMIDJI        CLOUDY    64  59  85 N9G18     29.81R
HALLOCK        MOSUNNY   73  63  68 NW5       29.83F
ROSEAU         SUNNY     72  61  68 N5        29.83S
WARROAD        MOSUNNY   70  63  78 E8        29.83F
THIEF RVR FALL SUNNY     73  59  61 NE12      29.83F
CROOKSTON      SUNNY     75  61  60 N9G17     29.83S
FOSSTON        CLOUDY    70  63  78 N10G17    29.83S
DETROIT LAKES  PTSUNNY   68  61  77 N8        29.83S
MOORHEAD       MOSUNNY   72  63  73 NW12      29.83F
PARK RAPIDS    CLOUDY    65  60  84 N16       29.80R
MAHNOMEN       FAIR      70  61  74 N14       29.82S
$$
MNZ006-009>011-018-025>026-171900-
   North Central Minnesota

CITY           SKY/WX    TMP DP  RH WIND       PRES   REMARKS
BAUDETTE       PTSUNNY   68  57  68 N10       29.81F
FLAG ISLAND    CLOUDY    70  54  56 CALM      29.81F
INTL FALLS     CLOUDY    62  59  90 N9        29.78F
6HR MIN TEMP:  59; 6HR MAX TEMP:  62; 6HR PCP:  0.09;

WASKISH        CLOUDY    66  61  82 N8        29.80F
BIG FORK       CLOUDY    63  61  94 N9        29.76F
LONGVILLE      CLOUDY    64  61  88 NW5       29.76S
GRAND RAPIDS   LGT RAIN  62  60  93 N12       29.76R
CRANE LAKE     LGT RAIN  61  59  94 N6        29.76S
ORR            RAIN      61  57  88 NW5       29.72S
COOK           LGT RAIN  63  61  94 N7        29.73S
WALKER         CLOUDY    62  59  89 NW10G20   29.78S
$$
MNZ012-019>021-037-171900-
   Northeast Minnesota

CITY           SKY/WX    TMP DP  RH WIND       PRES   REMARKS
DULUTH         LGT RAIN  61  61 100 N12       29.65R VSB 3/4
6HR MIN TEMP:  58; 6HR MAX TEMP:  61; 6HR PCP:  0.11;

ELY            HVY RAIN  59  59 100 N6        29.70S
HIBBING        LGT RAIN  62  59  90 N13       29.71R
EVELETH        RAIN      61  57  88 N6        29.71S
DULUTH HARBOR  CLOUDY    63  61  94 NW9       29.64R FOG
TWO HARBORS    CLOUDY    66  61  82 N5        29.61S HAZE
GRAND MARAIS     N/A     67  61  81 N12G21    29.60F
G MARAIS ARPRT CLOUDY    59  55  88 N13       29.66S
$$
MNZ029>031-032-039>041-046>048-054>057-064-171900-
   West Central Minnesota

CITY           SKY/WX    TMP DP  RH WIND       PRES   REMARKS
FERGUS FALLS   MOSUNNY   72  61  68 N13G21    29.82S
WHEATON        MOSUNNY   72  61  68 NW10      29.85S
MORRIS         MOSUNNY   70  63  78 NW18      29.82S
ALEXANDRIA     CLOUDY    66  62  87 N13       29.82R
ELBOW LAKE     PTSUNNY   69  62  77 N14G20    29.83R HAZE
WADENA         CLOUDY    63  63 100 N10       29.80R
GLENWOOD       MOSUNNY   66  63  88 NW15      29.81R
APPLETON       PTSUNNY   70  61  73 N13G21    29.83R
BENSON         CLOUDY    70  61  73 N15G21    29.83R
ORTONVILLE     MOSUNNY   70  61  73 MISG      29.85R
MADISON        PTSUNNY   70  70 100 NW14      29.85S
WILLMAR        CLOUDY    68  64  88 NW16      29.81R
$$
MNZ033>034-036-042>043-049>051-058-059-171900-
   Central Minnesota

CITY           SKY/WX    TMP DP  RH WIND       PRES   REMARKS
ST CLOUD       PTSUNNY   71  63  75 N16G23    29.72R
6HR MIN TEMP:  62; 6HR MAX TEMP:  71; 6HR PCP:  0.25;

SAUK CENTRE    CLOUDY    67  62  82 N12       29.78R
PAYNESVILLE    CLOUDY    68  64  86 NW9G16    29.78R
AITKIN         CLOUDY    63  61  94 NW8       29.72R
PINE RIVER     CLOUDY    61  57  88 N8        29.81R
BRAINERD       CLOUDY    65  61  87 NW15      29.75S
STAPLES        CLOUDY    64  61  88 N13G18    29.78S
LONG PRAIRIE   CLOUDY    68  61  77 NW12G18   29.78S
LITTLE FALLS   CLOUDY    64  59  82 NW7G17    29.76R
LITCHFIELD     PTSUNNY   73  66  78 NW14G28   29.77R
BUFFALO        CLOUDY    69  61  75 NW13G21   29.73R
MAPLE LAKE     CLOUDY    72  65  79 NW14G22   29.74R
HUTCHINSON     CLOUDY    70  66  85 W14       29.77R
$$
MNZ037-044-045-052-053-171900-
   East Central Minnesota

CITY           SKY/WX    TMP DP  RH WIND       PRES   REMARKS
PRINCETON      CLOUDY    70  63  78 NW13G18   29.70S
MORA           CLOUDY    64  61  88 NW14G20   29.70R
RUSH CITY      HVY RAIN  65  60  83 NW8G21    29.67R
MOOSE LAKE     CLOUDY    63  59  88 N10G16    29.67R
HINCKLEY       CLOUDY    64  61  88 NW13G20   29.67R
CLOQUET        DRIZZLE   61  57  88 NW13      29.68R
MCGREGOR       CLOUDY    63  59  88 N14       29.72R
$$
MNZ071>073-080-081-089-090-097-098-171900-
   Southwest Minnesota

CITY           SKY/WX    TMP DP  RH WIND       PRES   REMARKS
MONTEVIDEO     CLOUDY    70  70 100 N14       29.83S
GRANITE FALLS  CLOUDY    69  63  83 NW16      29.84S
CANBY          PTSUNNY   72  63  72 W16       29.87S
MARSHALL       PTSUNNY   69  64  84 NW17G24   29.84F
REDWOOD FALLS  CLOUDY    69  62  78 NW15G23   29.80R
OLIVIA         CLOUDY    70  64  83 NW14G20   29.80R
PIPESTONE      MOSUNNY   73  61  64 N16G24    29.88S
WINDOM         SUNNY     66  61  82 W15G24    29.85R
WORTHINGTON    PTSUNNY   71  62  73 NW20      29.87S
JACKSON        CLOUDY    68  61  77 NW17G24   29.85S
TRACY          CLOUDY    68  64  88 NW15G23   29.85S
SLAYTON        CLOUDY    68  57  68 NW18G24   29.88R
$$
MNZ065>067-074>077-082>085-091>093-171900-
   South Central Minnesota

CITY           SKY/WX    TMP DP  RH WIND       PRES   REMARKS
MANKATO        LGT RAIN  67  63  87 W20G26    29.76R
NEW ULM        CLOUDY    68  63  83 W21       29.78S
ST JAMES       CLOUDY    70  63  78 W18G25    29.81S
FAIRMONT       CLOUDY    68  62  81 NW23      29.82R
GLENCOE        CLOUDY    73  67  82 NW17G24   29.74R
FARIBAULT      RAIN      66  64  94 W18G28    29.72R
OWATONNA       DRIZZLE   66  64  94 W21       29.73R
WASECA         CLOUDY    64  61  88 W15G23    29.76R
ALBERT LEA     DRIZZLE   68  66  94 W13G22    29.75R
$$
MNZ078>079-086>088-094>096-171900-
   Southeast Minnesota

CITY           SKY/WX    TMP DP  RH WIND       PRES   REMARKS
ROCHESTER      CLOUDY    68  64  87 W22G32    29.69R
6HR MIN TEMP:  64; 6HR MAX TEMP:  69; 6HR PCP:  0.08;

RED WING       CLOUDY    66  63  88 NW10G20   29.64R
STANTON        CLOUDY    66  63  89 NW15G24   29.69R FOG
DODGE CENTER   PTSUNNY   66  63  88 W18G26    29.71R
WINONA         CLOUDY    73  64  73 W16G24    29.62R
AUSTIN         CLOUDY    66  63  88 W22G30    29.73R FOG
PRESTON        CLOUDY    66  62  87 NW17G26   29.70R FOG
$$
ABBREVIATIONS USED IN REMARKS
   TC - TEMPERATURES IN CELSIUS
  WCI - WIND CHILL INDEX
   HX - HEAT INDEX
  VSB - VISIBILITY
$$



USA.gov is the U.S. government's official web portal to all federal, state and local government web resources and services.